This is the latest recevied weather packets stored in our database for station/object N9EA. If no packets are shown the sender has not sent any weather packets the latest 1 day(s).
| Time | Temp. | Humidity | Pressure | Rain* | Wind** | Luminosity | Snow |
|---|---|---|---|---|---|---|---|
| 1778031515 | 11.67° C | 51% | 1008.8 hPa | 0 mm | - | 0 W/m² | - |
| 1778031213 | 11.67° C | 51% | 1008.7 hPa | 0 mm | - | 0 W/m² | - |
| 1778030909 | 11.67° C | 52% | 1008.8 hPa | 0 mm | - | 0 W/m² | - |
| 1778030606 | 11.67° C | 52% | 1008.8 hPa | 0 mm | - | 0 W/m² | - |
| 1778030304 | 11.67° C | 51% | 1008.6 hPa | 0 mm | - | 0 W/m² | - |
| 1778030000 | 11.67° C | 51% | 1008.5 hPa | 0 mm | - | 0 W/m² | - |
| 1778029395 | 11.67° C | 51% | 1008.6 hPa | 0 mm | - | 2 W/m² | - |
| 1778029092 | 11.67° C | 50% | 1008.5 hPa | 0 mm | - | 3 W/m² | - |
| 1778028789 | 12.22° C | 50% | 1008.5 hPa | 0 mm | - | 5 W/m² | - |
| 1778028485 | 12.22° C | 49% | 1008.6 hPa | 0 mm | - | 6 W/m² | - |
| 1778028183 | 12.22° C | 48% | 1008.6 hPa | 0 mm | - | 8 W/m² | - |
| 1778027575 | 12.78° C | 48% | 1008.3 hPa | 0 mm | - | 15 W/m² | - |
| 1778026968 | 12.78° C | 46% | 1008.4 hPa | 0 mm | - | 26 W/m² | - |
| 1778026058 | 13.33° C | 44% | 1008.3 hPa | 0 mm | - | 44 W/m² | - |
| 1778024847 | 13.89° C | 42% | 1008.2 hPa | 0 mm | - | 62 W/m² | - |
| 1778022729 | 13.89° C | 41% | 1008.3 hPa | 0 mm | - | 82 W/m² | - |
| 1778021516 | 14.44° C | 39% | 1008.5 hPa | 0 mm | - | 133 W/m² | - |
| 1778020607 | 13.89° C | 39% | 1008.9 hPa | 0 mm | - | 152 W/m² | - |
| 1778019089 | 13.89° C | 39% | 1008.7 hPa | 0 mm | - | 146 W/m² | - |
| 1778018787 | 13.89° C | 40% | 1009 hPa | 0 mm | - | 168 W/m² | - |
| 1778016668 | 13.89° C | 37% | 1009.3 hPa | 0 mm | - | 230 W/m² | - |
| 1778015456 | 13.89° C | 37% | 1009.4 hPa | 0 mm | - | 196 W/m² | - |
| 1778014547 | 13.89° C | 38% | 1009.3 hPa | 0 mm | - | 168 W/m² | - |
| 1778013639 | 13.89° C | 38% | 1009.3 hPa | 0 mm | - | 239 W/m² | - |
| 1778009999 | 13.89° C | 37% | 1009.9 hPa | 0 mm | - | 253 W/m² | - |
* Rain latest hour (hover to see other rain measurements)
** Current wind speed in m/s (hover to see current wind gust speed)